GW0043 Weather Reports


time (UTC)temp
F
wind
direction
speed
knots
gust
knots
rain 1hr
in
rain 24hr
in
rain mn
in
humidity
%
barometer
mb
20260510180316 78 194 3.5 10.4 0.00 0.00 0.00 78 1013.5
20260510175808 79 203 4.3 9.6 0.00 0.00 0.00 78 1013.6
20260510175306 79 196 0.9 10.4 0.00 0.00 0.00 77 1013.8
20260510174800 79 214 2.6 11.3 0.00 0.00 0.00 77 1013.9
20260510174258 79 206 2.6 10.4 0.00 0.00 0.00 80 1013.8
20260510173754 80 12 2.6 6.1 0.00 0.00 0.00 80 1014.0
20260510173250 79 231 3.5 10.4 0.00 0.00 0.00 81 1014.0
20260510172745 81 178 6.1 6.1 0.00 0.00 0.00 80 1013.8
20260510172242 80 124 0.9 5.2 0.00 0.00 0.00 81 1014.1
20260510171739 80 213 0.9 4.3 0.00 0.00 0.00 81 1014.1
20260510171236 80 135 4.3 4.3 0.00 0.00 0.00 81 1013.9
20260510170733 80 6 2.6 4.3 0.00 0.00 0.00 81 1013.8
20260510170229 80 195 4.3 5.2 0.00 0.00 0.00 81 1013.9
20260510165725 79 112 0.0 2.6 0.00 0.00 0.00 82 1014.0
20260510165221 79 101 0.0 2.6 0.00 0.00 0.00 80 1013.9
20260510164718 80 358 2.6 4.3 0.00 0.00 0.00 82 1014.1
20260510164216 79 21 0.0 2.6 0.00 0.00 0.00 83 1014.1
20260510163710 79 237 1.7 5.2 0.00 0.00 0.00 83 1014.4
20260510163207 79 16 3.5 5.2 0.00 0.00 0.00 82 1014.3
20260510162706 78 28 1.7 3.5 0.00 0.00 0.00 83 1014.2
20260510162203 78 12 1.7 2.6 0.00 0.00 0.00 84 1014.2
20260510161659 78 47 2.6 4.3 0.00 0.00 0.00 83 1014.4
20260510161156 78 39 1.7 3.5 0.00 0.00 0.00 82 1014.1
20260510160653 78 354 1.7 2.6 0.00 0.00 0.00 83 1014.0
20260510160148 78 26 2.6 5.2 0.00 0.00 0.00 84 1014.0
20260510155644 78 174 1.7 3.5 0.00 0.00 0.00 86 1014.0
20260510155140 77 12 0.0 4.3 0.00 0.00 0.00 85 1014.0
20260510154636 77 36 1.7 3.5 0.00 0.00 0.00 87 1013.7
20260510154132 77 237 1.7 4.3 0.00 0.00 0.00 87 1013.8
20260510153627 77 69 2.6 3.5 0.00 0.00 0.00 88 1013.8
20260510153124 76 358 2.6 6.1 0.00 0.00 0.00 88 1014.0
20260510152620 76 92 2.6 3.5 0.00 0.00 0.00 88 1013.8
20260510152116 76 145 3.5 6.1 0.00 0.00 0.00 89 1013.8
20260510151613 75 68 1.7 4.3 0.00 0.00 0.00 89 1013.7
20260510151111 75 163 1.7 3.5 0.00 0.00 0.00 90 1013.8
20260510150606 75 1 2.6 6.1 0.00 0.00 0.00 91 1013.9
20260510145559 73 37 2.6 5.2 0.00 0.00 0.00 93 1014.2
20260510145055 73 50 0.0 3.5 0.00 0.00 0.00 94 1014.4
20260510144551 72 30 1.7 3.5 0.00 0.00 0.00 95 1014.1
20260510144048 72 2 1.7 3.5 0.00 0.00 0.00 96 1014.1
20260510143543 71 358 0.9 4.3 0.00 0.00 0.00 97 1014.2
20260510143040 71 343 0.9 4.3 0.00 0.00 0.00 98 1014.4
20260510142537 71 17 2.6 6.1 0.00 0.00 0.00 99 1014.4
20260510142033 70 27 3.5 6.1 0.00 0.00 0.00 99 1014.2
20260510141530 70 62 2.6 5.2 0.00 0.00 0.00 99 1014.1
20260510141028 70 26 2.6 4.3 0.00 0.00 0.00 99 1014.1
20260510140524 70 4 3.5 7.0 0.00 0.00 0.00 99 1014.2
20260510140023 70 9 2.6 5.2 0.00 0.00 0.00 99 1014.0
20260510135519 70 96 2.6 4.3 0.00 0.00 0.00 99 1014.0
20260510135016 69 347 1.7 5.2 0.00 0.00 0.00 99 1014.0
20260510134513 69 79 2.6 3.5 0.00 0.00 0.00 99 1013.9
20260510134010 69 75 1.7 2.6 0.00 0.00 0.00 99 1013.9
20260510133505 69 7 3.5 3.5 0.00 0.00 0.00 99 1013.9
20260510133001 69 10 3.5 3.5 0.00 0.00 0.00 99 1013.9
20260510132459 69 81 2.6 5.2 0.00 0.00 0.00 99 1013.7
20260510131955 69 9 2.6 4.3 0.00 0.00 0.00 99 1013.8
20260510131453 68 18 0.9 3.5 0.00 0.00 0.00 99 1013.6
20260510130950 68 10 3.5 3.5 0.00 0.00 0.00 99 1013.6
20260510130446 68 1 2.6 4.3 0.00 0.00 0.00 99 1013.4
20260510125944 67 54 3.5 4.3 0.00 0.00 0.00 99 1013.3
20260510125440 68 4 2.6 3.5 0.00 0.00 0.00 99 1013.1
20260510124937 67 351 3.5 4.3 0.00 0.00 0.00 99 1013.4
20260510124433 67 358 0.9 3.5 0.00 0.00 0.00 99 1013.1
20260510123930 67 344 1.7 2.6 0.00 0.00 0.00 99 1013.4
20260510123425 67 35 0.0 3.5 0.00 0.00 0.00 99 1013.0
20260510122922 67 14 2.6 4.3 0.00 0.00 0.00 99 1013.2
20260510122417 66 22 1.7 3.5 0.00 0.00 0.00 99 1013.2
20260510121913 67 58 0.9 2.6 0.00 0.00 0.00 99 1013.2
20260510121411 66 8 2.6 2.6 0.00 0.00 0.00 99 1012.8
20260510120908 67 77 1.7 2.6 0.00 0.00 0.00 99 1012.8
20260510120405 66 10 1.7 1.7 0.00 0.00 0.00 99 1012.8
20260510115901 66 54 1.7 4.3 0.00 0.00 0.00 99 1012.9
20260510115358 66 9 1.7 2.6 0.00 0.00 0.00 99 1012.6
20260510114854 66 61 0.0 2.6 0.00 0.00 0.00 99 1012.5
20260510114351 66 73 0.0 2.6 0.00 0.00 0.00 99 1012.3
20260510113851 66 19 4.3 4.3 0.00 0.00 0.00 99 1012.2
20260510113348 66 30 1.7 2.6 0.00 0.00 0.00 99 1012.1
20260510112845 66 244 0.0 3.5 0.00 0.00 0.00 99 1012.1
20260510112342 66 69 0.0 2.6 0.00 0.00 0.00 99 1011.9
20260510111838 66 5 2.6 3.5 0.00 0.00 0.00 99 1012.0
20260510111334 66 21 0.9 3.5 0.00 0.00 0.00 99 1011.8
20260510110834 66 47 4.3 4.3 0.00 0.00 0.00 99 1012.0
20260510110332 66 104 1.7 3.5 0.00 0.00 0.00 99 1011.9
20260510105827 66 358 0.0 2.6 0.00 0.00 0.00 99 1011.6
20260510105322 66 61 0.0 2.6 0.00 0.00 0.00 99 1011.6
20260510104818 66 26 1.7 2.6 0.00 0.00 0.00 99 1011.2
20260510104316 66 22 1.7 3.5 0.00 0.00 0.00 99 1011.2
20260510103812 66 43 2.6 3.5 0.00 0.00 0.00 99 1011.1
20260510103309 66 27 2.6 2.6 0.00 0.00 0.00 99 1011.0
20260510102804 66 118 0.9 2.6 0.00 0.00 0.00 99 1011.0
20260510102300 66 31 1.7 3.5 0.00 0.00 0.00 99 1010.7
20260510101757 66 54 1.7 5.2 0.00 0.00 0.00 99 1010.7
20260510101255 66 35 1.7 6.1 0.00 0.00 0.00 99 1010.8
20260510100751 66 358 2.6 4.3 0.00 0.00 0.00 99 1010.5
20260510100249 66 327 3.5 6.1 0.00 0.00 0.00 99 1010.7
20260510095744 66 13 3.5 4.3 0.00 0.00 0.00 99 1010.7
20260510095240 66 8 3.5 4.3 0.00 0.00 0.00 99 1010.6
20260510094738 66 66 1.7 2.6 0.00 0.00 0.00 99 1010.8
20260510094234 66 16 4.3 4.3 0.00 0.00 0.00 99 1010.5
20260510093730 66 34 2.6 6.1 0.00 0.00 0.00 99 1010.6
20260510093228 66 358 1.7 4.3 0.00 0.00 0.00 99 1010.7
20260510092724 66 19 2.6 6.1 0.00 0.00 0.00 99 1010.7
20260510092220 66 47 3.5 4.3 0.00 0.00 0.00 99 1010.6
20260510091715 66 12 3.5 4.3 0.00 0.00 0.00 99 1010.7
20260510091212 66 335 1.7 3.5 0.00 0.00 0.00 99 1010.3
20260510090709 66 4 2.6 4.3 0.00 0.00 0.00 99 1010.3
20260510090206 66 358 1.7 4.3 0.00 0.00 0.00 99 1010.1
20260510085701 66 46 1.7 3.5 0.00 0.00 0.00 99 1010.3
20260510085156 66 358 1.7 3.5 0.00 0.00 0.00 99 1010.3
20260510084653 66 1 1.7 2.6 0.00 0.00 0.00 99 1010.1
20260510084149 66 346 0.9 2.6 0.00 0.00 0.00 99 1010.1
20260510083646 67 21 2.6 2.6 0.00 0.00 0.00 99 1010.3
20260510083143 67 24 1.7 3.5 0.00 0.00 0.00 99 1010.3
20260510082639 67 354 1.7 3.5 0.00 0.00 0.00 99 1010.1
20260510082135 67 32 2.6 3.5 0.00 0.00 0.00 99 1010.3
20260510081629 67 3 2.6 4.3 0.00 0.00 0.00 99 1010.1
20260510081126 67 358 3.5 3.5 0.00 0.00 0.00 99 1010.1
20260510080625 67 358 0.0 3.5 0.00 0.00 0.00 99 1010.3
20260510080122 67 23 2.6 3.5 0.00 0.00 0.00 99 1010.0
20260510075620 67 13 4.3 4.3 0.00 0.00 0.00 99 1010.3
20260510075116 67 8 1.7 3.5 0.00 0.00 0.00 99 1010.2
20260510074614 67 358 1.7 3.5 0.00 0.00 0.00 99 1010.0
20260510074109 67 337 2.6 4.3 0.00 0.00 0.00 99 1009.9
20260510073605 67 19 2.6 4.3 0.00 0.00 0.00 99 1009.8
20260510073103 67 18 4.3 4.3 0.00 0.00 0.00 99 1009.8
20260510072559 68 358 3.5 4.3 0.00 0.00 0.00 99 1009.7
20260510072055 67 5 2.6 3.5 0.00 0.00 0.00 99 1010.0
20260510071551 67 358 1.7 4.3 0.00 0.00 0.00 99 1010.0
20260510071049 67 21 2.6 3.5 0.00 0.00 0.00 99 1010.0
20260510070546 68 9 3.5 3.5 0.00 0.00 0.00 99 1009.9
20260510070043 67 351 0.9 2.6 0.00 0.00 0.00 99 1010.0
20260510065539 67 15 2.6 3.5 0.00 0.00 0.00 99 1010.1
20260510065035 68 343 1.7 2.6 0.00 0.00 0.00 99 1010.2
20260510064532 67 352 0.9 3.5 0.00 0.00 0.00 99 1010.0
20260510064028 68 348 2.6 4.3 0.00 0.00 0.00 99 1010.0
20260510063525 68 358 0.9 4.3 0.00 0.00 0.00 99 1009.8
20260510063023 68 10 3.5 3.5 0.00 0.00 0.00 99 1010.2
20260510062518 68 358 0.9 4.3 0.00 0.00 0.00 99 1010.2
20260510062013 67 340 2.6 3.5 0.00 0.00 0.00 99 1010.0
20260510061511 68 15 1.7 3.5 0.00 0.00 0.00 99 1010.2
20260510061007 68 347 2.6 2.6 0.00 0.00 0.00 99 1010.2
20260510060504 68 15 1.7 3.5 0.00 0.00 0.00 99 1010.1
20260510060000 68 355 2.6 3.5 0.00 0.00 0.00 99 1010.2
20260510055456 68 354 1.7 1.7 0.00 0.00 0.00 99 1010.1
20260510054954 68 31 1.7 1.7 0.00 0.00 0.00 99 1010.2
20260510054449 68 343 1.7 1.7 0.00 0.00 0.00 99 1010.2
20260510053944 68 21 2.6 2.6 0.00 0.00 0.00 99 1010.2
20260510053440 68 2 1.7 3.5 0.00 0.00 0.00 99 1010.1
20260510052936 68 358 0.9 3.5 0.00 0.00 0.00 99 1010.2
20260510052432 68 358 0.9 2.6 0.00 0.00 0.00 99 1010.2
20260510051929 68 51 0.0 1.7 0.00 0.00 0.00 99 1010.4
20260510051425 68 2 1.7 2.6 0.00 0.00 0.00 99 1010.3
20260510050921 68 253 0.0 1.7 0.00 0.00 0.00 99 1010.2
20260510050418 69 178 1.7 1.7 0.00 0.00 0.00 99 1010.3
20260510045916 68 171 0.0 1.7 0.00 2.48 2.48 99 1010.3
20260510045413 69 73 0.0 1.7 0.00 2.48 2.48 99 1010.4
20260510044909 69 343 0.9 0.9 0.00 2.48 2.48 99 1010.3
20260510044407 69 6 0.0 0.0 0.00 2.48 2.48 99 1010.4
20260510043903 69 178 0.0 0.9 0.00 2.48 2.48 99 1010.6
20260510043359 69 183 0.0 0.0 0.00 2.48 2.48 99 1010.1
20260510042857 69 119 0.0 1.7 0.00 2.48 2.48 99 1010.4
20260510042353 69 183 0.0 1.7 0.00 2.48 2.48 99 1010.7
20260510041849 69 171 0.0 1.7 0.00 2.48 2.48 99 1010.4
20260510041346 69 64 0.0 0.9 0.00 2.48 2.48 99 1010.3
20260510040844 69 207 0.9 1.7 0.00 2.48 2.48 99 1010.3
20260510040341 69 79 0.0 2.6 0.00 2.48 2.48 99 1010.5
20260510035836 69 4 2.6 2.6 0.00 2.48 2.48 99 1010.7
20260510035332 69 358 0.0 1.7 0.00 2.48 2.48 99 1010.7
20260510034828 69 347 1.7 2.6 0.00 2.48 2.48 99 1010.7
20260510034326 69 339 1.7 2.6 0.00 2.48 2.48 99 1010.8
20260510033822 69 344 0.0 0.9 0.00 2.48 2.48 99 1010.9
20260510033319 70 343 1.7 2.6 0.00 2.48 2.48 99 1010.9
20260510032815 70 335 1.7 1.7 0.00 2.48 2.48 99 1010.7
20260510032312 70 182 0.0 2.6 0.00 2.48 2.48 99 1010.7
20260510031808 70 213 0.9 1.7 0.00 2.48 2.48 99 1010.5
20260510031303 70 178 0.0 0.9 0.00 2.48 2.48 99 1010.6
20260510030757 70 350 0.0 1.7 0.00 2.48 2.48 99 1010.7
20260510030254 70 342 1.7 1.7 0.00 2.48 2.48 99 1010.9
20260510025752 70 353 1.7 1.7 0.00 2.48 2.48 99 1010.7
20260510025249 70 289 0.0 1.7 0.00 2.48 2.48 98 1010.5
20260510024745 70 259 0.0 1.7 0.00 2.48 2.48 98 1010.5
20260510024241 70 232 0.9 4.3 0.00 2.48 2.48 99 1010.7
20260510023738 70 223 1.7 1.7 0.00 2.48 2.48 98 1010.6
20260510023230 70 241 0.0 4.3 0.00 2.48 2.48 99 1010.4
20260510022726 70 199 0.0 5.2 0.00 2.48 2.48 99 1010.6
20260510022226 70 180 0.0 6.1 0.00 2.48 2.48 99 1010.2
20260510021721 70 233 0.0 8.7 0.00 2.48 2.48 99 1010.0
20260510021219 70 186 4.3 7.0 0.00 2.48 2.48 99 1009.8
20260510020713 70 204 2.6 7.8 0.00 2.48 2.48 99 1009.7
20260510020209 70 252 1.7 6.1 0.00 2.48 2.48 99 1009.7
20260510015705 70 170 2.6 7.0 0.00 2.48 2.48 99 1009.4
20260510015201 70 210 0.0 2.6 0.00 2.48 2.48 99 1009.4
20260510014701 70 179 4.3 6.1 0.00 2.48 2.48 99 1009.3
20260510014159 70 178 2.6 5.2 0.00 2.48 2.48 99 1009.5
20260510013654 70 178 1.7 4.3 0.00 2.48 2.48 99 1009.4
20260510013150 70 189 0.0 2.6 0.00 2.48 2.48 99 1010.3
20260510012649 70 178 0.0 3.5 0.00 2.48 2.48 99 1010.2
20260510012146 70 199 1.7 2.6 0.00 2.48 2.48 99 1010.0
20260510011641 70 223 1.7 5.2 0.00 2.48 2.48 99 1009.9
20260510011137 70 180 2.6 5.2 0.00 2.48 2.48 99 1009.3
20260510010633 70 196 0.9 5.2 0.00 2.48 2.48 99 1009.5
20260510010130 70 190 4.3 6.1 0.00 2.48 2.48 99 1009.8
20260510005625 70 202 1.7 6.1 0.00 2.48 2.48 99 1009.5
20260510005123 70 183 4.3 5.2 0.02 2.48 2.48 99 1009.6
20260510004621 70 186 4.3 7.0 0.02 2.48 2.48 99 1009.6
20260510004119 69 212 1.7 4.3 0.00 2.47 2.47 99 1009.5
20260510003616 70 176 3.5 6.1 0.00 2.47 2.47 99 1009.6
20260510003112 69 180 2.6 5.2 0.00 2.47 2.47 99 1009.4
20260510002606 69 175 4.3 5.2 0.00 2.47 2.47 99 1009.9
20260510002103 69 79 0.0 1.7 0.00 2.47 2.47 99 1009.4
20260510001601 69 208 1.7 3.5 0.02 2.47 2.47 99 1009.9
20260510001100 69 88 0.0 1.7 0.05 2.47 2.47 99 1009.5
20260510000559 69 198 0.0 4.3 0.05 2.47 2.47 99 1009.6
20260510000056 69 88 0.0 3.5 0.02 2.46 2.46 99 1009.6
20260509235553 69 185 3.5 3.5 0.02 2.46 2.46 99 1009.8
20260509235050 69 166 2.6 4.3 0.07 2.46 2.46 99 1010.0
20260509234546 69 160 2.6 5.2 0.05 2.46 2.46 99 1010.0
20260509234044 69 188 2.6 3.5 0.02 2.45 2.45 99 1009.9
20260509233541 70 178 1.7 3.5 0.05 2.45 2.45 99 1010.2
20260509233038 69 252 0.0 0.9 0.05 2.44 2.44 99 1010.2
20260509232535 69 234 1.7 2.6 0.05 2.44 2.44 99 1010.2
20260509232032 69 191 2.6 4.3 0.05 2.44 2.44 99 1010.1
20260509231528 69 201 1.7 6.1 0.02 2.43 2.43 99 1009.7
20260509231026 69 179 4.3 6.1 0.00 2.43 2.43 99 1009.8
20260509230522 69 183 2.6 7.0 0.00 2.43 2.43 99 1010.0
20260509230019 69 228 2.6 4.3 0.00 2.43 2.43 99 1009.7
20260509225515 69 194 2.6 2.6 0.00 2.43 2.43 99 1009.4
20260509225010 69 214 1.7 2.6 0.00 2.43 2.43 99 1009.2
20260509224507 69 164 0.9 2.6 0.00 2.43 2.43 99 1008.9
20260509224004 69 178 0.9 1.7 0.00 2.43 2.43 99 1008.7
20260509223500 69 343 0.0 0.9 0.00 2.43 2.43 99 1008.6
20260509222958 69 162 0.0 1.7 0.02 2.43 2.43 99 1008.3
20260509222453 68 196 0.0 2.6 0.00 2.42 2.42 99 1008.6
20260509221949 68 37 2.6 4.3 0.02 2.42 2.42 99 1008.7
20260509221446 68 216 1.7 4.3 0.02 2.42 2.42 99 1009.0
20260509220941 68 176 2.6 6.1 0.00 2.42 2.42 99 1009.6
20260509220438 68 164 4.3 6.1 0.00 2.42 2.42 99 1009.7
20260509215934 68 199 2.6 3.5 0.00 2.42 2.42 99 1009.8
20260509215429 68 252 0.0 4.3 0.00 2.42 2.42 99 1009.7
20260509214927 68 172 3.5 3.5 0.00 2.42 2.42 99 1009.8
20260509214424 68 218 0.0 2.6 0.00 2.42 2.42 99 1009.4
20260509213921 68 244 1.7 1.7 0.00 2.42 2.42 99 1009.2
20260509213416 68 182 3.5 7.8 0.00 2.42 2.42 99 1008.4
20260509212914 68 211 4.3 7.8 0.00 2.42 2.42 99 1008.2
20260509212411 68 171 4.3 7.8 0.00 2.42 2.42 99 1008.2
20260509211907 68 201 4.3 8.7 0.00 2.42 2.42 99 1007.7
20260509211403 67 196 4.3 6.1 0.00 2.42 2.42 99 1008.1
20260509210900 68 188 3.5 5.2 0.00 2.42 2.42 99 1007.8
20260509210357 68 181 5.2 6.1 0.00 2.42 2.42 99 1008.0
20260509205852 68 175 4.3 5.2 0.00 2.42 2.42 99 1007.8
20260509205346 68 197 3.5 4.3 0.00 2.42 2.42 99 1008.1
20260509204843 68 176 2.6 4.3 0.00 2.42 2.42 99 1008.2
20260509204334 68 193 1.7 3.5 0.02 2.42 2.42 99 1008.4
20260509203830 67 178 0.0 0.9 0.07 2.42 2.42 99 1008.5
20260509203327 68 178 0.0 1.7 0.07 2.42 2.42 99 1009.1
20260509202824 68 343 0.0 0.9 0.02 2.41 2.41 99 1009.5
20260509202320 67 186 0.0 1.7 0.02 2.40 2.40 99 1009.5
20260509201819 67 186 0.0 2.6 0.02 2.40 2.40 99 1009.5
20260509201316 67 155 2.6 3.5 0.07 2.40 2.40 99 1009.3
20260509200813 67 188 2.6 4.3 0.07 2.39 2.39 99 1009.2
20260509200308 67 186 0.0 3.5 0.07 2.39 2.39 99 1009.3
20260509195805 68 145 1.7 6.1 0.09 2.38 2.38 99 1009.1
20260509195300 68 163 3.5 7.0 0.14 2.37 2.37 99 1009.3
20260509194759 68 174 4.3 5.2 0.17 2.36 2.36 99 1009.6
20260509194256 68 208 3.5 6.1 0.33 2.35 2.35 99 1009.4
20260509193753 68 174 5.2 7.0 0.35 2.33 2.33 99 1009.5
20260509193253 68 185 4.3 4.3 0.12 2.29 2.29 99 1010.1
20260509192749 68 289 0.9 5.2 0.09 2.27 2.27 99 1010.2
20260509192244 68 197 1.7 4.3 0.09 2.26 2.26 99 1009.7
20260509191740 68 187 4.3 8.7 0.12 2.26 2.26 99 1009.9
20260509191236 68 186 6.1 8.7 0.17 2.25 2.25 99 1010.1
20260509190732 68 183 4.3 5.2 0.17 2.24 2.24 99 1010.4
20260509190229 68 172 4.3 5.2 0.12 2.22 2.22 99 1010.3
20260509185727 68 185 2.6 4.3 0.12 2.21 2.21 99 1010.1
20260509185223 68 281 0.0 0.9 0.12 2.20 2.20 99 1010.1
20260509184721 68 201 0.0 1.7 0.14 2.19 2.19 99 1009.8
20260509184218 68 358 0.0 1.7 0.17 2.18 2.18 99 1009.5
20260509183714 68 141 1.7 4.3 0.17 2.16 2.16 99 1009.6
20260509183209 68 178 2.6 7.0 0.12 2.15 2.15 99 1009.8
20260509182705 68 199 2.6 6.1 0.12 2.13 2.13 99 1009.5
20260509182203 68 192 0.0 5.2 0.12 2.12 2.12 99 1009.7
20260509181700 68 178 0.0 4.3 0.12 2.11 2.11 99 1009.3
20260509181158 68 202 0.0 4.3 0.17 2.10 2.10 99 1009.6
20260509180654 68 166 1.7 3.5 0.19 2.09 2.09 99 1009.4